SCP
1 1 0 0 0 0 0 0 0 0 0 0 0 0 0 0 0 0 0 0 0 0 1 1 2 1 1 1 0 0 0 0 1 1 1 0 0 0 0 0 0 0 0 0 0 0 0 0 0
0 0 0 0 0 0 0 0 0 0 0 0 0 0 0 0 0 0 0 0 0 0 1 1 1 1 1 1 0 0 1 1 1 1 0 0 0 0 0 0 0 0 0 0 0 0 0 0 0
0 0 0 0 0 0 0 0 0 0 0 0 0 0 0 0 0 0 0 0 0 0 1 1 2 1 1 1 1 1 1 1 1 1 1 0 0 0 0 0 0 0 0 0 0 0 0 0 0
0 0 0 0 0 0 0 0 0 0 0 0 0 0 0 0 0 0 0 0 0 0 1 1 2 2 1 1 1 1 1 1 1 1 1 1 0 0 0 0 0 0 0 0 0 0 0 0 0
0 0 0 0 0 0 0 0 0 0 0 0 0 0 0 0 0 0 0 0 0 0 1 1 1 1 1 1 1 1 1 1 1 1 1 1 1 0 0 0 0 0 0 0 0 0 0 0 0
0 0 0 0 0 0 0 0 0 0 0 0 0 0 0 0 0 0 0 0 0 0 0 1 1 1 1 1 1 1 1 1 1 0 0 1 1 1 0 0 0 0 0 0 0 0 0 0 0
0 0 0 0 0 0 0 0 0 0 0 0 0 0 0 0 0 0 0 0 0 0 0 0 1 1 1 1 1 1 1 1 0 0 0 1 1 1 1 1 0 0 0 0 0 0 0 0 0
0 0 0 0 0 0 0 0 0 0 0 0 0 0 0 0 0 0 0 0 0 0 0 0 0 0 1 1 1 1 1 0 0 0 0 0 1 1 1 1 1 0 0 0 0 0 0 0 0
1 0 0 0 0 0 0 0 0 0 0 0 0 0 0 0 1 1 0 0 0 0 0 0 0 0 0 1 1 1 0 0 0 0 0 0 0 1 0 0 1 1 0 0 0 0 0 0 0
1 0 0 0 0 0 0 0 0 0 0 0 0 0 0 1 1 1 1 1 0 0 0 0 0 0 0 1 1 0 0 0 0 0 0 0 0 0 0 0 1 1 0 0 0 0 0 0 0
1 0 0 0 0 0 0 0 0 0 0 0 0 0 0 1 1 1 1 1 1 1 1 1 0 0 0 0 0 0 0 0 0 0 0 0 0 0 0 1 0 0 0 0 0 0 0 0 0
1 0 0 0 0 0 0 0 0 0 0 0 0 0 0 0 1 1 1 1 1 1 1 1 1 1 0 0 0 0 0 0 0 0 0 0 0 0 1 0 0 0 0 0 0 0 0 0 0
0 0 0 0 0 0 0 0 0 0 0 0 0 0 0 0 0 1 1 1 1 1 1 1 1 1 1 0 0 0 0 0 0 0 0 0 0 1 0 0 0 0 0 0 0 0 0 0 0
0 0 0 0 0 0 0 0 0 0 0 0 0 0 0 0 0 0 1 1 1 2 1 1 1 1 1 1 0 0 0 0 0 0 0 0 0 0 0 0 0 0 0 0 0 0 0 0 0
0 0 0 0 0 0 0 0 0 0 0 0 0 0 0 0 0 0 0 1 1 2 2 2 1 1 1 1 0 0 0 0 0 0 0 0 0 0 0 0 0 0 0 0 0 0 0 0 0
0 0 0 0 0 0 0 0 0 0 0 0 0 0 0 0 0 0 0 0 1 1 1 2 2 1 1 1 1 0 0 0 0 0 0 0 0 0 0 0 0 0 0 0 0 0 0 0 0
0 0 0 0 0 0 0 0 0 0 0 0 0 0 0 0 0 0 0 0 1 1 1 1 1 1 1 1 1 1 0 0 0 0 0 0 0 0 0 0 0 0 0 0 0 0 0 0 0
0 0 0 0 0 0 0 0 0 0 0 0 0 1 1 1 1 1 1 1 1 1 1 1 1 2 1 1 1 1 1 0 0 0 0 0 0 0 0 0 0 0 0 0 0 0 0 0 0
0 0 0 0 0 0 0 0 0 0 0 0 0 0 0 1 1 1 1 1 1 1 1 1 1 2 2 2 2 1 1 1 1 0 0 0 0 0 0 0 0 0 0 0 0 0 0 0 0
0 0 0 0 0 0 0 0 0 0 0 0 0 0 0 0 1 1 1 1 1 1 1 1 1 2 2 2 2 2 1 1 1 1 0 0 0 0 0 0 0 0 0 0 0 0 0 0 0
0 0 0 0 0 0 0 0 0 0 0 0 0 0 0 0 0 1 1 1 1 1 1 1 1 2 2 2 2 2 2 2 1 1 1 0 0 0 0 0 0 0 0 0 0 0 0 0 0
0 0 0 0 0 0 0 0 0 0 0 0 0 0 0 0 0 0 0 1 1 1 1 1 1 1 2 2 2 2 2 2 1 1 1 0 0 0 0 0 0 0 0 0 0 0 0 0 0
0 0 0 0 0 0 0 0 0 0 0 0 0 0 0 0 0 0 0 0 0 1 1 1 0 1 1 2 2 2 2 2 2 1 1 0 0 0 0 0 0 0 0 0 0 0 0 0 0
0 0 0 0 0 0 0 0 0 0 0 0 0 0 0 0 0 0 0 0 0 1 1 1 0 1 1 2 2 2 2 2 2 1 1 0 0 0 0 0 0 0 0 0 0 0 0 0 0
0 0 0 0 0 0 0 0 0 0 0 0 0 0 0 0 1 1 1 1 1 1 1 1 1 1 1 2 2 2 2 2 2 1 1 1 0 0 0 0 0 0 0 0 0 0 0 0 0
0 0 0 0 0 0 0 0 0 0 0 0 0 0 0 0 1 1 1 1 1 1 1 1 1 1 1 2 2 2 2 2 2 2 1 1 1 0 0 0 0 0 0 0 0 0 0 0 0
0 0 0 0 0 0 0 0 0 0 0 0 0 0 0 0 1 1 1 1 1 1 1 1 1 1 1 2 2 3 2 2 2 2 2 1 1 1 1 0 0 0 0 0 0 0 0 0 0
0 0 0 0 0 0 0 0 0 0 0 0 0 0 0 0 0 1 1 1 1 1 1 1 1 1 1 2 2 3 3 2 2 2 2 2 1 1 1 1 0 0 0 0 0 0 0 0 0
0 0 0 0 0 0 0 0 0 0 0 0 0 0 0 0 0 1 1 1 1 2 2 1 1 1 1 1 2 3 3 2 2 3 3 2 2 2 1 1 1 1 0 0 0 0 0 0 0
0 0 0 0 0 0 0 0 0 0 0 0 0 0 0 0 0 1 1 1 1 2 2 2 1 1 1 1 2 3 3 2 2 3 3 3 2 2 2 1 1 1 1 0 0 0 0 0 0
Wind_Speed
1 1 2 2 2 3 7 5 4 5 5 6 6 6 7 8 7 7 4 4 4 5 5 7 8 8 8 9 9 9 10 10 10 10 10 10 10 10 9 9 10 10 10 10 10 10 10 10 10
2 1 2 2 0 5 7 5 7 7 5 5 5 6 7 8 6 6 4 4 4 6 6 8 9 9 10 10 9 10 10 10 9 9 10 10 10 9 9 10 10 10 10 10 10 10 10 10 10
0 2 2 0 3 5 7 6 7 7 5 3 4 5 5 6 5 5 4 4 5 7 7 10 10 10 10 10 9 9 9 9 9 9 9 10 10 10 9 10 10 11 10 10 10 10 10 10 10
1 1 1 4 9 8 6 6 5 6 5 4 4 6 6 5 4 5 6 5 6 7 7 10 10 10 10 9 9 9 9 9 9 9 9 9 10 10 10 10 11 11 11 11 10 10 10 10 10
1 1 3 7 8 7 6 5 3 4 4 4 4 7 7 5 5 6 6 5 6 7 7 8 10 9 10 9 9 9 9 10 10 10 10 10 10 10 10 11 11 11 11 11 10 10 11 10 10
1 1 4 7 8 7 6 4 4 5 6 5 5 7 6 5 5 6 6 5 6 6 6 7 9 9 9 10 9 9 9 10 10 10 10 10 10 10 10 11 11 10 11 11 10 10 11 11 11
1 2 5 8 8 7 5 3 4 5 6 5 3 6 7 6 5 6 6 5 5 5 5 5 6 7 8 9 9 9 9 10 9 9 10 10 10 10 10 10 10 10 10 10 10 10 11 11 11
1 2 6 6 7 6 5 4 4 4 5 4 1 4 7 7 6 6 6 5 5 4 4 4 5 5 5 7 8 8 9 9 8 8 8 7 8 9 8 9 10 10 10 11 11 11 11 11 11
2 3 6 6 5 6 5 4 4 3 5 5 4 5 8 10 8 7 6 6 5 4 4 3 4 5 4 5 6 5 6 6 4 6 6 3 5 6 6 11 9 10 10 10 11 10 9 9 10
0 4 6 4 4 6 5 4 4 4 5 6 7 7 9 10 9 7 6 6 5 4 4 3 3 4 4 4 3 3 4 4 4 5 5 4 5 6 6 9 9 9 8 10 9 7 5 3 6
3 5 6 5 4 5 5 4 2 3 4 4 6 9 10 10 8 7 5 5 4 4 3 3 3 3 3 2 3 2 2 3 4 5 6 4 4 4 4 3 5 5 5 6 6 4 5 6 6
6 6 5 5 4 3 3 3 3 2 3 3 5 9 10 9 8 6 5 4 4 3 2 2 1 2 3 3 3 2 2 3 3 3 5 3 3 3 3 3 4 3 4 4 4 4 6 6 7
7 6 5 4 4 3 4 3 2 2 2 4 7 9 9 8 7 6 5 4 4 3 3 2 1 2 2 3 2 2 2 3 3 3 3 4 3 3 3 3 3 4 3 3 4 5 6 6 7
6 6 5 4 3 3 3 2 2 3 4 6 8 8 8 7 6 6 5 5 4 4 3 3 3 2 2 2 2 2 2 2 2 2 2 3 3 2 3 4 3 3 3 3 4 5 4 5 6
5 5 4 3 2 2 3 3 2 3 5 6 7 7 6 6 6 5 5 4 4 4 4 3 3 3 3 3 3 2 2 2 3 2 2 3 3 2 3 3 3 3 2 3 3 5 4 5 5
4 4 3 3 2 2 4 1 3 4 5 6 6 6 6 6 6 5 5 4 4 4 4 4 3 3 3 3 3 2 2 3 2 2 2 3 3 3 3 2 3 3 2 2 3 3 3 4 4
4 3 3 3 2 2 3 1 2 4 5 5 6 6 7 6 7 6 5 5 5 4 4 5 5 4 4 4 3 3 3 3 2 2 2 2 3 3 3 2 2 3 3 2 3 3 3 4 4
3 3 2 2 2 3 4 3 2 4 5 5 6 6 7 7 7 7 6 5 5 5 5 5 5 5 5 4 3 3 3 2 2 2 2 3 2 3 3 2 2 3 2 2 3 4 3 3 3
2 2 2 1 0 4 4 4 3 3 5 6 6 7 7 7 6 6 6 6 6 6 6 6 6 5 4 3 3 2 2 2 2 2 2 2 2 2 3 1 2 2 2 2 3 3 4 3 2
4 5 3 2 1 4 4 4 3 4 6 6 6 7 8 7 7 6 6 7 7 7 7 7 6 6 5 3 2 2 2 2 2 1 2 2 2 2 1 2 2 2 2 2 2 2 2 2 0
5 5 4 3 2 5 5 4 3 4 5 5 5 6 7 8 8 8 8 7 7 7 7 6 7 6 6 5 3 3 3 2 2 2 2 2 2 2 2 2 2 2 1 2 1 2 1 1 1
4 3 4 5 6 3 4 4 1 2 4 4 4 5 6 7 8 8 8 8 8 7 7 7 7 7 6 6 5 4 3 2 2 2 2 2 2 2 2 2 2 2 1 2 1 1 1 0 1
1 1 3 5 6 6 5 6 1 2 2 2 3 4 5 7 7 8 8 8 8 8 7 6 7 7 6 6 5 5 3 2 2 3 3 3 3 2 2 2 1 1 1 2 1 0 0 1 1
3 4 4 5 6 6 3 6 2 1 2 2 1 2 3 5 7 7 7 7 7 7 7 7 6 6 6 6 6 5 4 4 4 4 3 3 2 2 2 2 1 1 1 1 1 1 0 0 0
6 6 4 5 5 2 1 5 1 2 2 3 2 1 2 4 5 6 7 7 7 8 8 7 7 7 7 7 6 6 5 5 4 4 3 3 2 2 2 2 2 1 1 1 1 1 1 1 1
5 6 5 4 3 1 3 4 1 2 2 2 1 1 1 3 4 5 6 7 7 8 8 8 8 7 7 7 6 5 5 4 3 4 3 3 2 2 2 2 2 2 2 2 1 1 1 1 1
5 5 4 7 5 6 3 2 2 2 1 1 1 2 1 1 3 4 5 6 7 8 8 8 8 7 7 7 7 5 5 4 4 4 4 3 2 3 3 3 3 3 2 2 2 1 1 1 1
4 2 4 6 5 6 4 5 3 2 1 1 1 1 1 1 2 3 4 4 5 7 7 8 7 7 7 7 6 5 5 5 4 4 4 4 4 3 4 3 3 3 3 3 2 2 1 2 2
5 6 6 5 6 6 5 1 2 1 0 2 2 2 1 1 1 3 3 4 4 5 6 7 7 7 7 6 6 6 6 6 5 5 5 4 4 4 4 4 3 3 3 3 3 2 2 2 2
6 6 7 7 6 6 7 2 3 2 1 2 3 2 2 2 1 3 4 4 4 5 5 6 7 7 6 6 6 6 6 6 6 5 5 5 5 5 5 4 4 4 3 3 3 3 3 2 2
Wind_Direction
276 298 265 248 215 90 73 67 69 88 70 60 60 60 63 47 35 65 77 62 55 61 58 71 64 67 68 68 69 71 70 70 72 74 74 75 75 78 78 78 78 78 76 73 68 67 67 68 69
337 301 248 253 189 99 81 78 79 71 88 96 73 66 72 69 58 82 93 75 67 69 59 68 69 68 67 65 65 68 68 68 70 72 72 74 76 77 76 76 78 77 75 72 68 66 68 68 67
263 278 295 10 65 71 91 85 87 86 83 81 80 57 52 63 70 85 88 97 83 74 67 71 67 67 66 63 62 65 67 69 70 73 73 73 74 73 71 73 75 75 72 70 68 68 67 67 66
249 214 167 87 84 68 82 100 107 110 88 63 91 86 76 50 56 85 105 101 89 81 73 70 61 64 63 65 63 63 66 67 69 71 71 70 73 73 70 72 74 73 70 68 68 70 70 68 67
252 241 121 101 87 87 88 88 108 101 91 84 90 94 88 73 79 97 101 93 90 83 74 72 62 59 58 62 63 62 67 68 68 70 69 68 72 74 73 74 72 70 69 67 68 72 72 72 69
207 199 126 106 100 99 95 88 92 91 98 102 100 100 92 100 107 109 108 99 90 87 82 81 76 62 57 59 59 59 62 65 66 68 68 68 72 74 76 74 70 69 70 70 71 74 75 74 69
52 85 102 112 114 107 94 81 70 85 94 85 94 106 115 124 117 121 117 107 96 89 85 83 86 90 83 68 56 54 59 62 63 66 67 68 71 75 77 76 71 71 70 69 72 76 77 75 71
20 120 118 117 119 105 103 96 70 61 83 91 97 110 125 138 138 131 122 118 108 95 86 80 79 71 72 82 70 56 56 59 63 67 70 78 92 89 85 85 73 72 72 71 75 78 79 78 72
255 138 118 115 114 111 123 113 89 86 107 107 87 72 104 133 142 141 135 128 114 102 93 85 84 77 71 66 77 78 76 65 81 91 83 89 85 87 92 71 71 72 73 76 78 80 83 91 87
123 109 97 91 100 113 119 102 113 136 122 122 119 109 122 142 149 149 143 131 122 112 101 95 88 81 74 69 71 60 64 64 58 68 76 71 74 71 75 88 79 79 85 90 83 91 110 99 85
84 95 106 109 108 116 120 110 119 133 106 115 136 142 146 152 158 156 144 132 126 118 104 96 88 81 67 74 60 59 64 67 63 61 76 76 84 93 83 90 102 98 97 85 92 93 68 70 65
105 99 109 115 119 127 119 119 109 80 69 85 127 145 154 162 165 167 158 148 141 128 116 99 83 90 88 78 66 58 61 63 65 57 63 72 75 79 82 79 69 69 73 71 69 69 75 69 69
109 106 105 111 118 118 118 116 105 105 110 123 136 152 160 167 171 172 166 161 155 142 134 124 113 84 79 79 65 70 58 49 75 62 51 67 77 82 90 87 74 66 71 80 76 73 73 70 66
106 115 115 121 129 138 136 138 148 126 144 147 152 161 166 170 178 174 172 169 165 157 149 139 141 133 118 107 95 64 64 68 61 64 54 66 76 84 86 87 78 73 69 68 77 79 79 75 70
130 131 131 136 149 147 179 160 154 138 165 165 169 168 172 177 184 190 181 180 174 167 155 149 144 141 134 112 86 70 62 70 67 62 48 66 64 82 88 85 87 85 86 90 76 84 82 79 81
162 174 160 137 173 179 239 168 127 154 182 183 183 178 185 188 196 195 192 192 181 178 166 155 156 154 137 118 111 98 83 75 69 65 46 60 71 70 78 88 93 92 84 81 85 80 85 86 81
193 179 158 151 175 201 240 266 143 180 201 199 198 194 195 195 200 199 200 196 183 185 181 167 161 156 139 125 123 106 96 86 72 67 59 56 70 76 86 82 91 98 95 87 91 85 84 89 86
166 173 183 187 149 223 244 260 215 195 214 217 209 207 204 205 204 199 196 195 191 189 182 173 160 159 147 149 138 125 106 96 85 72 65 61 68 79 87 94 91 92 102 100 103 102 92 89 93
204 223 236 270 249 257 265 273 257 204 216 226 220 216 214 212 204 196 196 194 191 186 184 178 175 166 163 164 169 157 135 125 107 81 77 82 90 86 87 87 81 82 96 101 114 113 112 102 100
228 239 244 229 223 267 281 277 256 223 220 229 232 224 220 215 203 193 193 193 195 188 188 183 185 178 178 176 169 152 130 121 93 93 81 71 93 89 94 109 106 103 98 111 109 121 122 109 68
232 251 260 270 255 235 267 243 210 199 218 225 234 234 224 215 211 198 191 192 192 191 188 188 187 182 182 175 163 154 152 160 145 131 102 70 83 92 80 84 96 108 129 121 128 139 145 132 119
239 250 259 258 263 256 266 273 192 196 200 216 227 227 226 217 211 203 193 192 194 192 186 191 185 184 181 180 187 187 182 171 152 142 127 123 111 109 98 94 100 115 113 116 144 152 158 229 170
293 183 238 254 265 260 246 266 213 166 226 242 234 228 222 214 208 201 198 195 194 188 183 185 181 183 181 187 189 200 190 167 153 152 140 140 120 117 112 101 107 111 105 102 93 92 264 244 292
182 200 206 228 246 245 253 260 263 120 308 315 267 227 216 205 203 201 196 188 187 182 180 180 179 183 182 187 191 197 186 175 167 168 155 156 140 136 129 129 129 119 103 114 118 131 129 334 1
219 243 237 218 217 232 164 252 266 32 337 322 322 286 213 192 195 194 191 185 183 181 182 182 182 183 186 192 194 193 190 189 185 181 172 173 157 148 137 148 140 131 124 121 125 124 91 101 91
223 254 274 284 278 271 205 246 115 50 348 325 320 1 144 174 186 190 191 187 184 184 184 186 186 187 187 195 199 198 187 194 184 188 181 180 164 151 151 162 154 147 143 142 127 118 95 96 94
222 232 283 284 279 271 228 211 205 196 185 32 33 43 44 155 180 183 181 184 186 187 189 192 190 190 190 196 198 198 198 194 183 185 182 178 169 158 165 165 163 151 152 149 142 123 120 102 88
281 251 227 249 269 264 248 237 224 177 171 72 29 20 21 30 174 174 176 180 188 190 190 191 196 194 194 198 196 189 197 197 197 189 183 180 176 170 170 176 172 167 166 162 151 144 121 129 107
203 218 241 253 264 277 274 236 82 171 288 326 336 357 3 338 189 174 174 177 184 189 190 190 195 197 194 196 196 191 193 193 196 197 192 189 188 186 190 185 181 179 176 169 164 169 158 161 140
254 249 243 254 250 255 275 269 120 183 264 306 309 329 326 308 225 185 177 172 178 185 193 195 196 195 196 197 195 193 190 189 196 198 196 193 192 193 195 188 184 180 181 180 180 178 177 180 174